Track STARLINK-1265 now! 10-day predictions STARLINK-1265 is classified as:
1 45406U 20019AY 22175.50282487 .00001015 00000-0 87053-4 0 9998 2 45406 53.0557 95.7875 0001830 63.6837 296.4340 15.06402674125755